Regional Weather Roundup
Issued by NWS

Home | Current Version | Previous Version | Graphics & Text | Print | Product List | Glossary On
Versions: 1 2 3 4 5 6 7 8 9 10 11 12 13 14 15 16 17 18 19 20 21 22 23 24 25 26 27 28 29 30 31 32 33 34 35 36 37 38 39 40 41 42 43 44 45 46 47 48 49 50
000
ASUS43 KMKX 232010
RWRWI

WISCONSIN REGIONAL WEATHER ROUNDUP
NATIONAL WEATHER SERVICE MILWAUKEE/SULLIVAN WI
300 PM CDT WED JUL 23 2014

NOTE: "FAIR" INDICATES FEW OR NO CLOUDS BELOW 12,000 FEET WITH NO
SIGNIFICANT WEATHER AND/OR OBSTRUCTIONS TO VISIBILITY.

WIZ001-002-006>008-014>016-023>028-232100-
NORTHWEST WISCONSIN

CITY           SKY/WX    TMP DP  RH WIND       PRES   REMARKS
SUPERIOR ARPT  SUNNY     75  57  54 E6        30.22F
ASHLAND        SUNNY     73  55  53 NE7       30.25S
HAYWARD        SUNNY     75  52  44 NW8       30.23F
SIREN          PTSUNNY   78  50  37 NE7       30.23F
RICE LAKE      SUNNY     76  49  37 NW7       30.23F
LADYSMITH      MOSUNNY   76  53  43 NW8       30.23F
EAU CLAIRE     MOSUNNY   80  54  40 VRB3      30.19F HX  80
MENOMONIE      MOCLDY    78  53  40 N7        30.21F
NEW RICHMOND   MOSUNNY   78  51  38 N3        30.22F
OSCEOLA        CLOUDY    79  54  41 NW7       30.25S
$$

WIZ003>005-009-010-017-018-232100-
NORTH CENTRAL WISCONSIN

CITY           SKY/WX    TMP DP  RH WIND       PRES   REMARKS
WOODRUFF       MOSUNNY   74  53  48 NE6       30.24S
RHINELANDER    PTSUNNY   71  50  47 CALM      30.24S
EAGLE RIVER    PTSUNNY   68  48  48 NE6       30.23F
LAND O LAKES   MOSUNNY   70  49  47 NE3       30.24F
PHILLIPS       PTSUNNY   73  53  49 N9        30.22F
TOMAHAWK       PTSUNNY   69  54  58 N3        30.24S
MEDFORD        PTSUNNY   72  53  52 N6        30.22F
MERRILL        PTSUNNY   74  55  52 NE9       30.22S
$$

WIZ029-030-035-036-043>047-232100-
CENTRAL WISCONSIN

CITY           SKY/WX    TMP DP  RH WIND       PRES   REMARKS
WAUSAU           N/A    N/A N/A N/A MISG      30.20S
MOSINEE        PTSUNNY   73  54  49 N9        30.22
MARSHFIELD     CLOUDY    74  55  51 N12       30.21S
STEVENS POINT  PTSUNNY   73  51  47 NE13      30.21R
WAUPACA        PTSUNNY   78  48  35 N10       30.19S
WAUTOMA        PTSUNNY   78  53  41 NE8       30.19F
WISC RAPIDS    PTSUNNY   79  53  40 N10G18    30.21S
CAMP DOUGLAS   PTSUNNY   79  57  47 NW10      30.20S HX  80
$$

WIZ011>013-019>022-031-037>040-048>050-232100-
NORTHEAST WISCONSIN

CITY           SKY/WX    TMP DP  RH WIND       PRES   REMARKS
ANTIGO         MOSUNNY   71  51  49 NE12      30.22S
STURGEON BAY   MOSUNNY   72  48  43 N14G23    30.20S
GREEN BAY      MOSUNNY   74  54  49 NE10      30.20R
MANITOWOC      SUNNY     68  51  54 E9        30.19F
APPLETON       PTSUNNY   72  48  43 N10       30.20R
CLINTONVILLE   CLOUDY    73  46  38 NE8       30.20S
OSHKOSH        PTSUNNY   75  52  44 N15G21    30.18S
$$

WIZ032>034-041-042-053>061-232100-
SOUTHWEST WISCONSIN

CITY           SKY/WX    TMP DP  RH WIND       PRES   REMARKS
LA CROSSE      PTSUNNY   82  55  39 NW8       30.19F HX  81
SPARTA         PTSUNNY   79  52  39 W7        30.20F
VIROQUA        FAIR      77  55  46 NW8       30.21F
BOSCOBEL       MOSUNNY   81  54  39 VRB3      30.19F HX  81
PRAIRIE DU CHI MOSUNNY   78  51  39 N8        30.18F
PLATTEVILLE    FAIR      76  55  48 N12       30.20F
$$

WIZ056-057-062-063-064-067-068-232100-
SOUTH CENTRAL WISCONSIN

CITY           SKY/WX    TMP DP  RH WIND       PRES   REMARKS
BARABOO/DELLS  PTSUNNY   76  52  43 N7        30.19F
LONE ROCK      MOSUNNY   82  56  40 N8        30.19F HX  82
WATERTOWN      PTSUNNY   73  55  52 N6        30.17F
MADISON        PTSUNNY   80  55  42 N13       30.18F HX  80
MIDDLETON      MOCLDY    79  51  36 NE9       30.19F
MONROE         PTSUNNY   77  54  44 N7        30.18F
JANESVILLE     MOSUNNY   79  48  34 N12G18    30.17S
$$

WIZ051-052-058>065-066-070>072-232100-
SOUTHEAST WISCONSIN

CITY           SKY/WX    TMP DP  RH WIND       PRES   REMARKS
MILWAUKEE      MOSUNNY   65  55  70 N16       30.19S
WAUKESHA       MOSUNNY   72  54  53 NE8       30.19S
MILWAUKEE/TIMM SUNNY     66  52  59 NE14G20   30.20R
RACINE         SUNNY     66  55  67 NE16      30.19F
BURLINGTON     MOSUNNY   72  53  51 NE6       30.17S
KENOSHA        SUNNY     71  55  56 NE15      30.17F
FOND DU LAC    MOSUNNY   74  50  42 NE15      30.19F
SHEBOYGAN      SUNNY     66  53  63 NE13      30.20S
WEST BEND      CLOUDY    68  54  60 E9        30.19S
JUNEAU         CLOUDY    73  48  42 N9        30.20S
$$

LSZ147-162-232100-
LAKE SUPERIOR

STATION/POSITION TIME  TEMP    WIND        PRES    WAVE
                       AIR SEA DIR/SP/G            HT/PER
                 (UTC) (F)     (DEG/KT/KT) (MB)    (FT/S)
$$

LMZ867-665-643>646-232100-
LAKE MICHIGAN

STATION/POSITION TIME  TEMP    WIND        PRES    WAVE
                       AIR SEA DIR/SP/G            HT/PER
                 (UTC) (F)     (DEG/KT/KT) (MB)    (FT/S)
$$

TC  - TEMPERATURE IN CELSIUS
VSB - VISIBILITY IN STATUTE MILES
WCI - WIND CHILL INDEX
HX  - HEAT INDEX



USA.gov is the U.S. government's official web portal to all federal, state and local government web resources and services.